Regional Weather Roundup
Issued by NWS

Home | Current Version | Previous Version | Text Only | Print | Product List | Glossary Off
Versions: 1 2 3 4 5 6 7 8 9 10 11 12 13 14 15 16 17 18 19 20 21 22 23 24 25 26 27 28 29 30 31 32 33 34 35 36 37 38 39 40 41 42 43 44 45 46 47 48 49 50

000
ASUS43 KDMX 260101
RWRIA

WEATHER ROUNDUP FOR IOWA
NATIONAL WEATHER SERVICE DES MOINES IA
800 PM CDT WED APR 25 2018

NOTE: "FAIR" INDICATES FEW OR NO CLOUDS BELOW 12,000 FEET WITH NO
SIGNIFICANT WEATHER AND/OR OBSTRUCTIONS TO VISIBILITY.

* - THESE STATIONS ARE NOT NWS STATIONS...THUS NOT UNDER NWS
QUALITY CONTROL.  THEY ALSO DO NOT REPORT WEATHER SUCH
AS PRECIPITATION OR FOG.

IAZ001>003-012>014-020>022-031>034-043>046-260200-
   NORTHWEST IOWA

CITY           SKY/WX    TMP DP  RH WIND       PRES   REMARKS
CARROLL *      CLEAR     57  27  30 NE6       30.02F
CHEROKEE *     CLEAR     57  29  33 CALM      30.01F
DENISON *      CLEAR     59  23  25 N3        30.03F
LE MARS *      CLEAR     59  28  31 W3        30.02S
ORANGE CITY *  CLEAR     55  30  38 CALM      30.02F
SHELDON *      CLEAR     55  25  30 SW5       30.00F
SIOUX CITY     CLEAR     58  31  35 W5        30.02F
SPENCER        CLEAR     58  27  30 CALM      30.02F
STORM LAKE *   CLEAR     55  27  33 E5        30.02S
$$

IAZ055>058-069>071-079>083-090>094-260200-
   SOUTHWEST IOWA

CITY           SKY/WX    TMP DP  RH WIND       PRES   REMARKS
ATLANTIC *     CLEAR     57  36  44 S8        30.02S
AUDUBON *      CLEAR     55  27  33 CALM      30.03F
CLARINDA *     CLEAR     54  39  58 W7        30.06F
COUNCIL BLFS * CLEAR     57  36  44 NW6       30.02F
CRESTON *      CLEAR     55  34  44 SW5       30.03F
HARLAN  *      CLEAR     59  27  29 N3        30.05F
LAMONI         CLOUDY    54  32  43 W5        30.02F
RED OAK *      CLEAR     55  37  50 SW6       30.04S
SHENANDOAH *   CLEAR     54  39  58 SW7       30.06S
$$

IAZ047>049-059>061-072>074-084-260200-
   CENTRAL IOWA

CITY           SKY/WX    TMP DP  RH WIND       PRES   REMARKS
AMES           CLEAR     58  32  37 N10       30.01F
ANKENY *       CLEAR     59  30  33 N6        30.02S
BOONE *        CLEAR     57  32  38 N7        30.01F
CHARITON *     CLOUDY    55  28  35 SW5       30.01S
DES MOINES     PTCLDY    62  26  25 N6        30.01S
GRINNELL*      CLEAR     53  27  36 N6        30.01F
KNOXVILLE *    CLEAR     59  25  27 N5        29.99S
MARSHALLTOWN   CLEAR     56  32  40 N7        30.00F
NEWTON *       CLEAR     59  28  31 N6        30.00F
PELLA *        CLEAR     59  24  26 N3        30.01F
$$

IAZ004>006-015-016-023>025-035-036-260200-
   NORTH CENTRAL IOWA

CITY           SKY/WX    TMP DP  RH WIND       PRES   REMARKS
ALGONA *       CLEAR     54  34  47 NE3       30.03F
CLARION *      CLEAR     55  34  44 N5        30.03F
ESTHERVILLE    CLEAR     53  36  52 CALM      30.02F
FORT DODGE *   CLEAR     55  32  41 CALM      30.03F
MASON CITY     CLEAR     51  36  56 NW6       30.03F
FOREST CITY *  FAIR      52  36  54 NW3       30.03F
WEBSTER CITY * CLEAR     55  34  44 N6        30.01F
IOWA FALLS *   FAIR      56  35  45 NW6       30.04S
$$

IAZ007>011-017>019-026>030-037>042-050>054-066-260200-
   NORTHEAST IOWA

CITY           SKY/WX    TMP DP  RH WIND       PRES   REMARKS
CEDAR RAPIDS   FAIR      57  29  34 N7        29.99S
CHARLES CITY * FAIR      54  34  47 N6        30.03S
CLINTON *      FAIR      56  30  37 N6        30.00
DECORAH *      FAIR      55  30  38 N6        30.00F
DUBUQUE        FAIR      55  29  36 NW5       30.00S
MONTICELLO *   FAIR      57  27  30 NE3       29.99S
OELWEIN *      FAIR      55  32  41 NW5       30.01F
WATERLOO       FAIR      52  33  48 NW7       30.01S
$$

IAZ064-065-067-068-078-260200-
   EAST CENTRAL IOWA

CITY           SKY/WX    TMP DP  RH WIND       PRES   REMARKS
DAVENPORT      FAIR      55  28  35 NE7       30.01S HAZE
IOWA CITY      FAIR      62  25  24 N5        30.00F
MT. PLEASANT * CLOUDY    57  28  33 CALM      29.99S
MUSCATINE *    FAIR      59  28  31 N3        29.99S
QUAD CITIES    FAIR      61  29  29 N3        29.98S
$$

IAZ062-063-075>077-085>089-095>099-260200-
   SOUTHEAST IOWA

CITY           SKY/WX    TMP DP  RH WIND       PRES   REMARKS
BURLINGTON     CLOUDY    56  34  43 SW6       29.98F
FAIRFIELD *    PTCLDY    59  27  29 CALM      29.99S
FORT MADISON * CLOUDY    57  36  44 CALM      30.00F
KEOKUK *       CLOUDY    59  36  41 CALM      29.99S
OSKALOOSA *    FAIR      57  24  28 N5        30.00S
CENTERVILLE *  FAIR      55  30  38 CALM      30.02F
OTTUMWA        PTCLDY    59  28  30 CALM      29.99F
WASHINGTON *   PTCLDY    61  27  27 N3        30.00F
$$

ABBREVIATIONS USED IN REMARKS
   TC - TEMPERATURES IN CELSIUS
  WCI - WIND CHILL INDEX
   HX - HEAT INDEX
  VSB - VISIBILITY
$$





USA.gov is the U.S. government's official web portal to all federal, state and local government web resources and services.